Louisville, KY

12:54 PM EDT on June 22, 2017 (GMT -0400)
Louisville International-Standiford

Weather History for KSDF - June, 2014

Change the Weather History Date:

Friday, June 27, 2014

  Actual Average Record
Temperature  
Mean Temperature 81 °F 78 °F  
Max Temperature 92 °F 88 °F 101 °F (1914)
Min Temperature 70 °F 69 °F 52 °F (1926)
Degree Days  
Heating Degree Days 0 0  
Month to date heating degree days 0 1  
Since 1 June heating degree days 0 1  
Since 1 July heating degree days 4547 4093  
Cooling Degree Days 16 13  
Month to date cooling degree days 346 283  
Year to date cooling degree days 580 457  
Since 1 June cooling degree days 346 283  
Growing Degree Days 30 (Base 50)    
Moisture  
Dew Point 67 °F    
Average Humidity 56    
Maximum Humidity 67    
Minimum Humidity 44    
Precipitation  
Precipitation T in 0.11 in 2.18 in (1902)
Month to date precipitation 1.61 3.45  
Year to date precipitation 21.12 23.32  
Snow  
Snow 0.00 in 0.00 in - ()
Month to date snowfall 0.0 0.0  
Since 1 June snowfall 0.0 0.0  
Since 1 July snowfall 26.0 12.5  
Snow Depth 0.00 in    
Sea Level Pressure  
Sea Level Pressure 30.02 in    
Wind  
Wind Speed 5 mph (South)    
Max Wind Speed 17 mph    
Max Gust Speed 21 mph    
Visibility 10 miles    
Events Rain    
T = Trace of Precipitation, MM = Missing Value Source: NWS Daily Summary

Daily Weather History Graph

Daily Weather History Graph

Search for Another Location

Airport or City:

Trip Planner

Search our weather history database for the weather conditions in past years. The results will help you decide how hot, cold, wet, or windy it might be!

Date:

Astronomy

Jun. 27, 2014 Rise Set
Actual Time 6:21 AM EDT 9:10 PM EDT
Civil Twilight 5:50 AM EDT 9:41 PM EDT
Nautical Twilight 5:10 AM EDT 10:21 PM EDT
Astronomical Twilight 4:25 AM EDT 11:06 PM EDT
Moon 6:50 AM EDT (6/27) 9:16 PM EDT (6/27)
Length of Visible Light 15h 51m
Length of Day
14h 48m
New Moon, 0% of the Moon is Illuminated
Jun 27
New Moon
Jul 5
First Quarter
Jul 12
Full
Jul 18
Last Quarter
Jul 26
New

Hourly Weather History & Observations

Time (EDT) Temp. Heat Index Dew Point Humidity Pressure Visibility Wind Dir Wind Speed Gust Speed Precip Events Conditions
12:56 AM 77.0 °F - 66.0 °F 69% 30.02 in 10.0 mi SW 4.6 mph - N/A   Mostly Cloudy
1:56 AM 75.9 °F - 66.0 °F 71% 30.01 in 10.0 mi Calm Calm - N/A   Scattered Clouds
2:56 AM 75.0 °F - 66.0 °F 73% 29.99 in 10.0 mi Calm Calm - N/A   Scattered Clouds
3:56 AM 73.0 °F - 66.0 °F 79% 30.00 in 10.0 mi Calm Calm - N/A   Scattered Clouds
4:56 AM 71.1 °F - 66.0 °F 84% 30.00 in 10.0 mi WNW 4.6 mph - N/A   Partly Cloudy
5:56 AM 71.1 °F - 66.0 °F 84% 30.01 in 9.0 mi SE 3.5 mph - N/A   Partly Cloudy
6:56 AM 71.1 °F - 66.0 °F 84% 30.02 in 8.0 mi Calm Calm - N/A   Partly Cloudy
7:56 AM 73.9 °F - 66.9 °F 79% 30.04 in 7.0 mi Calm Calm - N/A   Partly Cloudy
8:56 AM 75.9 °F - 68.0 °F 76% 30.05 in 7.0 mi Calm Calm - N/A   Partly Cloudy
9:56 AM 80.1 °F 82.7 °F 68.0 °F 67% 30.06 in 8.0 mi Calm Calm - N/A   Clear
10:56 AM 82.9 °F 86.5 °F 69.1 °F 63% 30.05 in 9.0 mi SE 4.6 mph - N/A   Partly Cloudy
11:56 AM 86.0 °F 88.2 °F 66.0 °F 51% 30.05 in 10.0 mi SSE 5.8 mph - N/A   Partly Cloudy
12:56 PM 88.0 °F 89.6 °F 64.9 °F 46% 30.04 in 10.0 mi SE 4.6 mph - N/A   Scattered Clouds
1:56 PM 88.0 °F 89.3 °F 64.0 °F 45% 30.02 in 10.0 mi SW 5.8 mph - N/A   Scattered Clouds
2:56 PM 89.1 °F 90.3 °F 64.0 °F 43% 30.01 in 10.0 mi SSW 6.9 mph - N/A   Scattered Clouds
3:56 PM 90.0 °F 91.7 °F 64.9 °F 43% 30.00 in 10.0 mi SW 9.2 mph - N/A   Scattered Clouds
4:56 PM 90.0 °F 93.6 °F 68.0 °F 48% 29.99 in 10.0 mi SW 13.8 mph 17.3 mph N/A   Mostly Cloudy
5:56 PM 88.0 °F 89.6 °F 64.9 °F 46% 29.99 in 10.0 mi WSW 10.4 mph - N/A   Mostly Cloudy
6:56 PM 82.0 °F 84.9 °F 68.0 °F 62% 30.01 in 10.0 mi NE 8.1 mph - N/A   Overcast
7:56 PM 81.0 °F 83.8 °F 68.0 °F 65% 30.02 in 10.0 mi North 5.8 mph - N/A   Mostly Cloudy
8:56 PM 80.1 °F 82.7 °F 68.0 °F 67% 30.02 in 10.0 mi NE 3.5 mph - N/A   Mostly Cloudy
9:56 PM 77.0 °F - 71.1 °F 82% 30.03 in 10.0 mi SSE 4.6 mph - 0.00 in Rain Light Rain
10:56 PM 75.0 °F - 69.1 °F 82% 30.04 in 10.0 mi South 3.5 mph - 0.00 in Rain Light Rain
11:56 PM 75.0 °F - 69.1 °F 82% 30.05 in 10.0 mi SSW 4.6 mph - 0.00 in   Mostly Cloudy